Torna al catalogo

STARLINK-37100

AttivoComunicazioniSSO
NORAD 68230·PAYLOAD·🇺🇸 United States

Lanciato Mar 17, 2026 da Vandenberg Space Force Base

Loading…

Prossimi Passaggi (prossime 24 ore)

TLE

AggiornatoSource: CelesTrak SupGP

Epoca: Sep 15, 2026, 04:03 UTC

1 68230C 26053Z   26258.16923611  .00011706  00000+0  36327-3 0  2583
2 68230  97.2848 132.0831 0002087  89.0366 155.3023 15.33443265    12

Traccia STARLINK-37100 in tempo reale con AllMySat

Download on the App Store